Starlink 6178

operational
NORAD ID: 56387 Int'l Des: 2023-061 Owner: SPXS Country: US Constellation: starlink
LEOCIRCULAR

About Starlink 6178

Description loading...

Live Position

Loading 3D Globe...

Upcoming Passes

Altitude History

Altitude vs Time

uPlot chart will show altitude changes over time

Two-Line Element Set

1 56387U 23061P 25304.68233697 .00000403 00000-0 44883-4 0 9997
2 56387 43.0030 178.0196 0001328 265.2978 94.7712 15.02531488137352
Epoch: Oct 31, 2025 • Age: 16 hours

Current Status

Altitude 565.7 km
Velocity 7.58 km/s
Sub-Earth Point -27.94°S, 22.95°W
Launch Date May 4, 2023
Age 2.4 years
Type internet

Technical Details

Classification Payload
Mass 305.00 kg
Dry Mass 290.00 kg
Total Mass 305.00 kg
Length 0.20 m
Diameter 2.80 m
Span 9.00 m
Shape Box + pan
Manufacturer SPXS
Bus Type Starlink
Phase Status In Orbit
Owner/State SPXS/US

Large Constellations

Loading constellations...